Time,TemperatureF,DewpointF,PressureIn,WindDirection,WindDirectionDegrees,WindSpeedMPH,WindSpeedGustMPH,Humidity,HourlyPrecipIn,Conditions,Clouds,dailyrainin,SoftwareType,DateUTC
2013-03-22 00:03:00,54.0,44.0,29.96,North,360,0.0,0.0,70,0.00,,,0.01,,2013-03-22 04:03:00,
2013-03-22 00:12:00,54.0,44.0,29.96,North,360,0.0,0.0,70,0.00,,,0.01,,2013-03-22 04:12:00,
2013-03-22 00:23:00,52.0,43.0,29.96,North,1,0.0,0.0,70,0.00,,,0.01,,2013-03-22 04:23:00,
2013-03-22 00:32:00,52.0,43.0,29.95,North,360,0.0,0.0,70,0.00,,,0.01,,2013-03-22 04:32:00,
2013-03-22 00:43:00,52.0,43.0,29.95,North,360,0.0,0.0,70,0.00,,,0.01,,2013-03-22 04:43:00,
2013-03-22 00:52:00,51.0,42.0,29.96,North,1,0.0,0.0,71,0.00,,,0.01,,2013-03-22 04:52:00,
2013-03-22 01:02:00,50.0,41.0,29.96,North,1,0.0,0.0,72,0.00,,,0.01,,2013-03-22 05:02:00,
2013-03-22 01:12:00,50.0,41.0,29.96,North,1,0.0,0.0,72,0.00,,,0.01,,2013-03-22 05:12:00,
2013-03-22 01:22:00,50.0,41.0,29.95,North,1,0.0,0.0,72,0.00,,,0.01,,2013-03-22 05:22:00,
2013-03-22 01:32:00,49.0,41.0,29.95,North,360,0.0,0.0,73,0.00,,,0.01,,2013-03-22 05:32:00,
2013-03-22 01:42:00,49.0,41.0,29.95,North,360,0.0,0.0,73,0.00,,,0.01,,2013-03-22 05:42:00,
2013-03-22 01:52:00,49.0,41.0,29.94,North,1,0.0,0.0,75,0.00,,,0.01,,2013-03-22 05:52:00,
2013-03-22 02:02:00,48.0,41.0,29.95,North,1,0.0,0.0,76,0.00,,,0.01,,2013-03-22 06:02:00,
2013-03-22 02:13:00,48.0,41.0,29.95,North,1,0.0,0.0,76,0.00,,,0.01,,2013-03-22 06:13:00,
2013-03-22 02:22:00,49.0,42.0,29.95,North,11,0.0,0.0,76,0.00,,,0.01,,2013-03-22 06:22:00,
2013-03-22 02:32:00,48.0,40.0,29.94,North,11,0.0,0.0,74,0.00,,,0.01,,2013-03-22 06:32:00,
2013-03-22 02:42:00,48.0,40.0,29.94,North,11,0.0,0.0,74,0.00,,,0.01,,2013-03-22 06:42:00,
2013-03-22 02:52:00,47.0,40.0,29.94,North,11,0.0,0.0,77,0.00,,,0.01,,2013-03-22 06:52:00,
2013-03-22 03:03:00,47.0,40.0,29.94,North,11,0.0,0.0,77,0.00,,,0.01,,2013-03-22 07:03:00,
2013-03-22 03:12:00,47.0,40.0,29.94,North,11,0.0,0.0,77,0.00,,,0.01,,2013-03-22 07:12:00,
2013-03-22 03:22:00,47.0,40.0,29.94,North,11,0.0,0.0,76,0.00,,,0.01,,2013-03-22 07:22:00,
2013-03-22 03:32:00,46.0,40.0,29.93,North,11,0.0,0.0,78,0.00,,,0.01,,2013-03-22 07:32:00,
2013-03-22 03:42:00,46.0,40.0,29.93,North,11,0.0,0.0,78,0.00,,,0.01,,2013-03-22 07:42:00,
2013-03-22 03:52:00,46.0,40.0,29.92,North,11,0.0,0.0,80,0.00,,,0.01,,2013-03-22 07:52:00,
2013-03-22 04:03:00,46.0,40.0,29.92,North,11,0.0,0.0,80,0.00,,,0.01,,2013-03-22 08:03:00,
2013-03-22 04:13:00,46.0,40.0,29.92,North,11,0.0,0.0,80,0.00,,,0.01,,2013-03-22 08:13:00,
2013-03-22 04:22:00,47.0,41.0,29.92,North,11,0.0,0.0,79,0.00,,,0.01,,2013-03-22 08:22:00,
2013-03-22 04:32:00,47.0,41.0,29.91,North,11,0.0,0.0,78,0.00,,,0.01,,2013-03-22 08:32:00,
2013-03-22 04:42:00,47.0,41.0,29.91,North,11,0.0,0.0,78,0.00,,,0.01,,2013-03-22 08:42:00,
2013-03-22 04:52:00,48.0,41.0,29.91,North,11,0.0,0.0,76,0.00,,,0.01,,2013-03-22 08:52:00,
2013-03-22 05:02:00,48.0,40.0,29.92,North,11,0.0,0.0,74,0.00,,,0.01,,2013-03-22 09:02:00,
2013-03-22 05:12:00,48.0,40.0,29.92,North,11,0.0,0.0,74,0.00,,,0.01,,2013-03-22 09:12:00,
2013-03-22 05:22:00,48.0,40.0,29.92,North,11,0.0,0.0,73,0.00,,,0.01,,2013-03-22 09:22:00,
2013-03-22 05:32:00,48.0,40.0,29.91,North,11,0.0,0.0,74,0.00,,,0.01,,2013-03-22 09:32:00,
2013-03-22 05:42:00,48.0,40.0,29.91,North,11,0.0,0.0,74,0.00,,,0.01,,2013-03-22 09:42:00,
2013-03-22 05:53:00,48.0,40.0,29.92,North,11,0.0,0.0,74,0.00,,,0.01,,2013-03-22 09:53:00,
2013-03-22 06:04:00,48.0,40.0,29.92,North,11,0.0,0.0,75,0.00,,,0.01,,2013-03-22 10:04:00,
2013-03-22 06:12:00,48.0,40.0,29.92,North,11,0.0,0.0,75,0.00,,,0.01,,2013-03-22 10:12:00,
2013-03-22 06:22:00,48.0,40.0,29.93,North,11,0.0,0.0,75,0.00,,,0.01,,2013-03-22 10:22:00,
2013-03-22 06:33:00,48.0,40.0,29.94,North,11,0.0,0.0,75,0.00,,,0.01,,2013-03-22 10:33:00,
2013-03-22 06:42:00,48.0,40.0,29.94,North,11,0.0,0.0,75,0.00,,,0.01,,2013-03-22 10:42:00,
2013-03-22 06:52:00,48.0,40.0,29.94,North,11,0.0,0.0,75,0.00,,,0.01,,2013-03-22 10:52:00,
2013-03-22 07:03:00,48.0,41.0,29.95,North,11,0.0,0.0,76,0.00,,,0.01,,2013-03-22 11:03:00,
2013-03-22 07:12:00,48.0,41.0,29.95,North,11,0.0,0.0,76,0.00,,,0.01,,2013-03-22 11:12:00,
2013-03-22 07:22:00,48.0,41.0,29.96,North,11,0.0,2.0,76,0.00,,,0.01,,2013-03-22 11:22:00,
2013-03-22 07:33:00,48.0,41.0,29.96,North,11,0.0,0.0,76,0.00,,,0.01,,2013-03-22 11:33:00,
2013-03-22 07:42:00,48.0,41.0,29.96,North,11,0.0,0.0,76,0.00,,,0.01,,2013-03-22 11:42:00,
2013-03-22 07:52:00,48.0,41.0,29.96,North,11,0.0,0.0,76,0.00,,,0.01,,2013-03-22 11:52:00,
2013-03-22 08:02:00,48.0,41.0,29.97,North,11,0.0,0.0,77,0.00,,,0.01,,2013-03-22 12:02:00,
2013-03-22 08:12:00,49.0,42.0,29.97,North,11,0.0,0.0,78,0.00,,,0.01,,2013-03-22 12:12:00,
2013-03-22 08:22:00,49.0,42.0,29.97,North,11,0.0,0.0,78,0.00,,,0.01,,2013-03-22 12:22:00,
2013-03-22 08:32:00,50.0,43.0,29.98,North,11,0.0,0.0,78,0.00,,,0.01,,2013-03-22 12:32:00,
2013-03-22 08:42:00,50.0,43.0,29.98,North,11,0.0,0.0,78,0.00,,,0.01,,2013-03-22 12:42:00,
2013-03-22 08:52:00,51.0,44.0,29.98,North,11,0.0,4.0,78,0.00,,,0.01,,2013-03-22 12:52:00,
2013-03-22 09:02:00,53.0,46.0,29.98,North,11,1.0,4.0,77,0.00,,,0.01,,2013-03-22 13:02:00,
2013-03-22 09:12:00,53.0,46.0,29.98,North,11,1.0,4.0,77,0.00,,,0.01,,2013-03-22 13:12:00,
2013-03-22 09:22:00,55.0,47.0,29.99,North,11,1.0,5.0,73,0.00,,,0.01,,2013-03-22 13:22:00,
2013-03-22 09:32:00,57.0,47.0,29.98,North,11,0.0,2.0,70,0.00,,,0.01,,2013-03-22 13:32:00,
2013-03-22 09:42:00,57.0,47.0,29.98,North,11,0.0,2.0,70,0.00,,,0.01,,2013-03-22 13:42:00,
2013-03-22 09:52:00,60.0,48.0,29.98,South,184,2.0,5.0,64,0.00,,,0.01,,2013-03-22 13:52:00,
2013-03-22 10:02:00,62.0,47.0,29.99,ESE,122,3.0,7.0,57,0.00,,,0.01,,2013-03-22 14:02:00,
2013-03-22 10:12:00,62.0,47.0,29.99,ESE,122,3.0,7.0,57,0.00,,,0.01,,2013-03-22 14:12:00,
2013-03-22 10:22:00,64.0,47.0,29.99,ESE,117,2.0,7.0,53,0.00,,,0.01,,2013-03-22 14:22:00,
2013-03-22 10:32:00,66.0,48.0,29.99,ESE,108,2.0,9.0,52,0.00,,,0.01,,2013-03-22 14:32:00,
2013-03-22 10:42:00,66.0,48.0,29.99,ESE,108,2.0,9.0,52,0.00,,,0.01,,2013-03-22 14:42:00,
2013-03-22 10:52:00,67.0,50.0,30.00,ESE,105,0.0,6.0,54,0.00,,,0.01,,2013-03-22 14:52:00,
2013-03-22 11:03:00,68.0,52.0,30.00,SE,144,3.0,8.0,56,0.00,,,0.01,,2013-03-22 15:03:00,
2013-03-22 11:12:00,68.0,52.0,30.00,SE,144,3.0,8.0,56,0.00,,,0.01,,2013-03-22 15:12:00,
2013-03-22 11:22:00,69.0,54.0,30.00,ESE,105,1.0,6.0,58,0.00,,,0.01,,2013-03-22 15:22:00,
2013-03-22 11:33:00,70.0,55.0,30.00,SE,135,2.0,6.0,58,0.00,,,0.01,,2013-03-22 15:33:00,
2013-03-22 11:42:00,70.0,55.0,30.00,SE,135,2.0,6.0,58,0.00,,,0.01,,2013-03-22 15:42:00,
2013-03-22 11:53:00,70.0,55.0,30.00,East,94,0.0,6.0,60,0.00,,,0.01,,2013-03-22 15:53:00,
2013-03-22 12:03:00,71.0,56.0,30.00,East,89,0.0,5.0,59,0.00,,,0.01,,2013-03-22 16:03:00,
2013-03-22 12:13:00,72.0,56.0,30.00,ESE,119,1.0,5.0,58,0.00,,,0.00,,2013-03-22 16:13:00,
2013-03-22 12:23:00,72.0,56.0,30.00,ESE,119,1.0,5.0,58,0.00,,,0.00,,2013-03-22 16:23:00,
2013-03-22 12:32:00,75.0,59.0,29.99,SSW,192,1.0,5.0,58,0.00,,,0.00,,2013-03-22 16:32:00,
2013-03-22 12:42:00,75.0,61.0,29.99,SSE,153,0.0,7.0,61,0.00,,,0.00,,2013-03-22 16:42:00,
2013-03-22 12:52:00,75.0,61.0,29.99,SSE,153,0.0,7.0,61,0.00,,,0.00,,2013-03-22 16:52:00,
2013-03-22 13:03:00,75.0,63.0,29.98,South,171,4.0,11.0,66,0.00,,,0.00,,2013-03-22 17:03:00,
2013-03-22 13:12:00,75.0,63.0,29.98,South,175,3.0,14.0,67,0.00,,,0.00,,2013-03-22 17:12:00,
2013-03-22 13:23:00,75.0,63.0,29.98,South,175,3.0,14.0,67,0.00,,,0.00,,2013-03-22 17:23:00,
2013-03-22 13:32:00,74.0,63.0,29.98,SW,232,0.0,7.0,68,0.00,,,0.00,,2013-03-22 17:32:00,
2013-03-22 13:42:00,74.0,63.0,29.98,SW,232,0.0,7.0,68,0.00,,,0.00,,2013-03-22 17:42:00,
2013-03-22 13:53:00,76.0,64.0,29.97,WSW,250,4.0,8.0,66,0.00,,,0.00,,2013-03-22 17:53:00,
2013-03-22 14:02:00,76.0,64.0,29.97,SSW,198,5.0,10.0,67,0.00,,,0.00,,2013-03-22 18:02:00,
2013-03-22 14:12:00,76.0,64.0,29.97,SSW,198,5.0,10.0,67,0.00,,,0.00,,2013-03-22 18:12:00,
2013-03-22 14:22:00,76.0,65.0,29.96,SW,220,0.0,6.0,68,0.00,,,0.00,,2013-03-22 18:22:00,
2013-03-22 14:33:00,77.0,66.0,29.95,WSW,244,6.0,10.0,68,0.00,,,0.00,,2013-03-22 18:33:00,
2013-03-22 14:42:00,77.0,66.0,29.95,WSW,244,6.0,10.0,68,0.00,,,0.00,,2013-03-22 18:42:00,
2013-03-22 14:52:00,78.0,66.0,29.94,WSW,245,10.0,17.0,67,0.00,,,0.00,,2013-03-22 18:52:00,
2013-03-22 15:02:00,78.0,67.0,29.93,South,184,4.0,14.0,69,0.00,,,0.00,,2013-03-22 19:02:00,
2013-03-22 15:12:00,78.0,67.0,29.93,South,184,4.0,14.0,69,0.00,,,0.00,,2013-03-22 19:12:00,
2013-03-22 15:22:00,77.0,67.0,29.93,South,178,6.0,12.0,71,0.00,,,0.00,,2013-03-22 19:22:00,
2013-03-22 15:32:00,77.0,66.0,29.93,SW,226,8.0,16.0,70,0.00,,,0.00,,2013-03-22 19:32:00,
2013-03-22 15:42:00,77.0,66.0,29.93,SW,226,8.0,16.0,70,0.00,,,0.00,,2013-03-22 19:42:00,
2013-03-22 15:52:00,77.0,68.0,29.92,West,259,5.0,12.0,73,0.00,,,0.00,,2013-03-22 19:52:00,
2013-03-22 16:02:00,78.0,67.0,29.92,SW,214,7.0,13.0,70,0.00,,,0.00,,2013-03-22 20:02:00,
2013-03-22 16:12:00,78.0,67.0,29.92,SW,214,7.0,13.0,70,0.00,,,0.00,,2013-03-22 20:12:00,
2013-03-22 16:22:00,79.0,68.0,29.91,WSW,238,5.0,13.0,69,0.00,,,0.00,,2013-03-22 20:22:00,
2013-03-22 16:32:00,79.0,69.0,29.91,WSW,245,6.0,10.0,71,0.00,,,0.00,,2013-03-22 20:32:00,
2013-03-22 16:43:00,79.0,69.0,29.91,WSW,245,6.0,10.0,71,0.00,,,0.00,,2013-03-22 20:43:00,
2013-03-22 16:52:00,79.0,68.0,29.90,SW,224,4.0,11.0,70,0.00,,,0.00,,2013-03-22 20:52:00,
2013-03-22 17:03:00,78.0,67.0,29.91,South,186,5.0,17.0,70,0.00,,,0.00,,2013-03-22 21:03:00,
2013-03-22 17:12:00,78.0,68.0,29.90,WSW,251,3.0,14.0,71,0.00,,,0.00,,2013-03-22 21:12:00,
2013-03-22 17:22:00,78.0,68.0,29.90,WSW,251,3.0,14.0,71,0.00,,,0.00,,2013-03-22 21:22:00,
2013-03-22 17:33:00,79.0,69.0,29.90,West,268,4.0,13.0,71,0.00,,,0.00,,2013-03-22 21:33:00,
2013-03-22 17:43:00,79.0,69.0,29.90,West,268,4.0,13.0,71,0.00,,,0.00,,2013-03-22 21:43:00,
2013-03-22 17:53:00,78.0,68.0,29.90,WSW,252,3.0,11.0,72,0.00,,,0.00,,2013-03-22 21:53:00,
2013-03-22 18:03:00,78.0,69.0,29.91,WSW,252,4.0,14.0,73,0.00,,,0.00,,2013-03-22 22:03:00,
2013-03-22 18:12:00,78.0,69.0,29.91,WSW,252,4.0,14.0,73,0.00,,,0.00,,2013-03-22 22:12:00,
2013-03-22 18:23:00,77.0,68.0,29.92,SW,221,6.0,13.0,74,0.00,,,0.00,,2013-03-22 22:23:00,
2013-03-22 18:32:00,77.0,69.0,29.92,WSW,252,6.0,16.0,77,0.00,,,0.00,,2013-03-22 22:32:00,
2013-03-22 18:42:00,77.0,69.0,29.92,WSW,252,6.0,16.0,77,0.00,,,0.00,,2013-03-22 22:42:00,
2013-03-22 18:53:00,77.0,70.0,29.92,WSW,239,5.0,14.0,78,0.00,,,0.00,,2013-03-22 22:53:00,
2013-03-22 19:02:00,76.0,69.0,29.92,SW,219,3.0,17.0,79,0.00,,,0.00,,2013-03-22 23:02:00,
2013-03-22 19:12:00,76.0,69.0,29.92,SW,219,3.0,17.0,79,0.00,,,0.00,,2013-03-22 23:12:00,
2013-03-22 19:22:00,76.0,69.0,29.92,WSW,240,2.0,11.0,80,0.00,,,0.00,,2013-03-22 23:22:00,
2013-03-22 19:32:00,75.0,69.0,29.92,WSW,241,3.0,10.0,81,0.00,,,0.00,,2013-03-22 23:32:00,
2013-03-22 19:42:00,75.0,69.0,29.92,WSW,241,3.0,10.0,81,0.00,,,0.00,,2013-03-22 23:42:00,
2013-03-22 19:52:00,75.0,69.0,29.93,West,260,0.0,6.0,81,0.00,,,0.00,,2013-03-22 23:52:00,
2013-03-22 20:02:00,75.0,69.0,29.93,SW,234,0.0,7.0,82,0.00,,,0.00,,2013-03-23 00:02:00,
2013-03-22 20:12:00,75.0,69.0,29.93,SW,234,0.0,7.0,82,0.00,,,0.00,,2013-03-23 00:12:00,
2013-03-22 20:23:00,74.0,68.0,29.93,SW,234,0.0,0.0,82,0.00,,,0.00,,2013-03-23 00:23:00,
2013-03-22 20:33:00,74.0,68.0,29.94,SW,219,0.0,0.0,82,0.00,,,0.00,,2013-03-23 00:33:00,
2013-03-22 20:42:00,74.0,68.0,29.95,SW,220,0.0,0.0,83,0.00,,,0.00,,2013-03-23 00:42:00,
2013-03-22 20:52:00,74.0,68.0,29.95,SW,220,0.0,0.0,83,0.00,,,0.00,,2013-03-23 00:52:00,
2013-03-22 21:03:00,74.0,68.0,29.94,SW,221,0.0,0.0,83,0.00,,,0.00,,2013-03-23 01:03:00,
2013-03-22 21:12:00,74.0,68.0,29.94,SW,221,0.0,0.0,83,0.00,,,0.00,,2013-03-23 01:12:00,
2013-03-22 21:22:00,73.0,68.0,29.95,WSW,238,0.0,5.0,83,0.00,,,0.00,,2013-03-23 01:22:00,
2013-03-22 21:32:00,73.0,68.0,29.93,West,260,2.0,6.0,83,0.00,,,0.00,,2013-03-23 01:32:00,
2013-03-22 21:42:00,73.0,68.0,29.93,West,260,2.0,6.0,83,0.00,,,0.00,,2013-03-23 01:42:00,
2013-03-22 21:52:00,73.0,68.0,29.93,WSW,246,5.0,11.0,83,0.00,,,0.00,,2013-03-23 01:52:00,
2013-03-22 22:02:00,73.0,68.0,29.93,SW,219,4.0,10.0,83,0.00,,,0.00,,2013-03-23 02:02:00,
2013-03-22 22:12:00,73.0,68.0,29.93,SW,219,4.0,10.0,83,0.00,,,0.00,,2013-03-23 02:12:00,
2013-03-22 22:22:00,73.0,68.0,29.94,SSE,163,0.0,9.0,83,0.00,,,0.00,,2013-03-23 02:22:00,
2013-03-22 22:32:00,73.0,68.0,29.95,WSW,251,0.0,0.0,83,0.00,,,0.00,,2013-03-23 02:32:00,
2013-03-22 22:42:00,73.0,68.0,29.95,WSW,251,0.0,0.0,83,0.00,,,0.00,,2013-03-23 02:42:00,
2013-03-22 22:52:00,73.0,68.0,29.96,WSW,246,0.0,0.0,83,0.00,,,0.00,,2013-03-23 02:52:00,
2013-03-22 23:02:00,73.0,68.0,29.96,WSW,246,0.0,0.0,83,0.00,,,0.00,,2013-03-23 03:02:00,
2013-03-22 23:12:00,73.0,68.0,29.96,WSW,246,0.0,0.0,83,0.00,,,0.00,,2013-03-23 03:12:00,
2013-03-22 23:22:00,73.0,68.0,29.96,SSE,162,0.0,0.0,83,0.00,,,0.00,,2013-03-23 03:22:00,
2013-03-22 23:33:00,73.0,68.0,29.95,SSE,161,0.0,0.0,84,0.00,,,0.00,,2013-03-23 03:33:00,
2013-03-22 23:43:00,73.0,68.0,29.95,SSE,161,0.0,0.0,84,0.00,,,0.00,,2013-03-23 03:43:00,
2013-03-22 23:53:00,72.0,67.0,29.97,NE,35,1.0,4.0,84,0.00,,,0.00,,2013-03-23 03:53:00,